ORBCOMM FM112 [+] (41184 NORAD) Tracking and Keplerian Element Data

This shows tracking and keplerian element data for the satellite.

Feedback or suggestion? Click here.




ElementValue
Catalog41184
NameORBCOMM FM112 [+]
Epoch Orbit13764
Epoch Day198.43935104
Epoch Year2018
RAAN198.2069
Inclination46.9976
Eccentricity0.000188
Argument of Perigee336.9212
Mean Anonmoly23.1587
Mean Motion14.54721201
Decay Rate8.2E-07
L11 41184U 15081F 18198.43935104 .00000082 00000-0 57346-4 0 9998
L22 41184 46.9976 198.2069 0001880 336.9212 23.1587 14.54721201137643

Live tracking and technical data element details for ORBCOMM FM112 [+] (NORAD 41184). ORBCOMM FM112 [+] can be tracked NOW for your location showing map with azimuth and elevation plus other details from your city location.

Track the satellite on the map from your city or location and see movement details for azimuth, elevation, latitude, longitude, range, height, and movement on the map or in text.







IsCatalogInMostPopularTable: catalog: 41184, numindb: 61
Update: records affected: 1



GetName: 41184 ORBCOMM FM112 [+]

Hit Count: updated at: Wed, 18 Jul 2018 20:22:26 GMT